Regional Weather Roundup
Issued by NWS

Home | Current Version | Previous Version | Graphics & Text | Print | Product List | Glossary On
Versions: 1 2 3 4 5 6 7 8 9 10 11 12 13 14 15 16 17 18 19 20 21 22 23 24 25 26 27 28
000
ASUS45 KTFX 181710
RWRMT
MONTANA REGIONAL WEATHER ROUNDUP
NATIONAL WEATHER SERVICE GREAT FALLS MT
1100 AM MDT WED OCT 18 2017

NOTE: "FAIR" INDICATES FEW OR NO CLOUDS BELOW 12000 FEET WITH NO
SIGNIFICANT WEATHER AND/OR OBSTRUCTIONS TO VISIBILITY.

MTZ001>007-043-181800-
WEST OF THE DIVIDE

CITY           SKY/WX    TMP DP  RH WIND       PRES   REMARKS
KALISPELL      MOSUNNY   42  31  64 CALM      30.00F
MISSOULA       MOSUNNY   52  36  54 SE5       30.03F
BUTTE          CLOUDY    55  19  24 N6        30.07R
MULLAN PASS    CLOUDY    38  31  76 SW7G20    30.01R
ANACONDA         N/A     55  21  26 S12G20    30.04F
LIBBY            N/A     43  25  49 CALM      30.00S
$$

MTZ008-052>055-181800-
SOUTHWEST MONTANA

CITY           SKY/WX    TMP DP  RH WIND       PRES   REMARKS
BOZEMAN        SUNNY     59  22  24 CALM      30.03F
DILLON         SUNNY     52  20  28 S10       30.08S
W YELLOWSTONE  SUNNY     48  19  32 SW14G26   30.21S
ENNIS          CLOUDY    55  25  30 S16       30.12F
$$

MTZ009-010-012-014-046-048-049-054-181800-
EAST SLOPES AND CENTRAL MONTANA

CITY           SKY/WX    TMP DP  RH WIND       PRES   REMARKS
CUT BANK       CLOUDY    50  15  24 S9        29.91F
GREAT FALLS    CLOUDY    54  31  41 SW23G32   29.94F
MALMSTROM AFB  CLOUDY    55  32  41 SW25G37   29.95F
HELENA         SUNNY     55  33  43 CALM      30.01S
ULM              N/A     56  33  42 W15       29.96
$$

MTZ011-013-016-021-045-047-050-051-181800-
NORTH CENTRAL MONTANA

CITY           SKY/WX    TMP DP  RH WIND       PRES   REMARKS
HAVRE          CLOUDY    46  30  53 W7        29.96S
LEWISTOWN      SUNNY     51  22  31 E6        29.97F
N BAR RANCH      N/A     48  23  37 S9G17     30.03F
CHINOOK          N/A     45  30  57 E3        29.97S
DENTON           N/A     49  21  32 SE9       29.94
$$

MTZ017>020-022>027-061-062-181800-
NORTHEAST MONTANA

CITY           SKY/WX    TMP DP  RH WIND       PRES   REMARKS
GLASGOW        SUNNY     51  27  39 W9        29.98F
JORDAN           N/A     52  23  32 W7        30.02S
SIDNEY         SUNNY     52  23  32 W17G23    30.00S
WOLF POINT     MOSUNNY   53  23  31 W13       30.00F
MALTA          SUNNY     52  25  35 W12       29.98F
POPLAR           N/A     48  21  34 W15       30.00S
$$

MTZ028>42-056>058-181800-
SOUTHCENTRAL AND SOUTHEAST MONTANA

CITY           SKY/WX    TMP DP  RH WIND       PRES   REMARKS
BAKER          SUNNY     51  24  34 NW9       30.06R
BILLINGS       MOSUNNY   52  27  38 E13       30.03F
LIVINGSTON     SUNNY     63  19  18 W24G31    30.00F
MILES CITY     SUNNY     52  25  35 S7        30.06S
$$

REGIONAL REPORTS...DAKOTAS

CITY           SKY/WX    TMP DP  RH WIND       PRES   REMARKS
WILLISTON      MOSUNNY   51  20  29 NW22G36   29.97R
MINOT          SUNNY     53  17  24 W31G40    29.87R
DICKINSON      SUNNY     52  23  32 W17       30.00R
BEACH            N/A     50  19  29 W14G21    30.05F
CROSBY           N/A     50  18  27 W25G35    29.89S
TIOGA            N/A     48  18  29 W29G38    29.92R
WATFORD CITY     N/A     50  19  29 NW17G28   29.97R
BISMARCK       CLOUDY    55  22  27 NW13G26   29.99R
GRAND FORKS    MOSUNNY   59  23  25 W23G33    29.78R
FARGO          CLOUDY    56  26  31 W17G26    29.87R
BUFFALO SD       N/A     53  23  31 W10       30.02R
RAPID CITY     SUNNY     58  23  26 N13       30.11S
$$

REGIONAL REPORTS...WYOMING/IDAHO/WASHINGTON

CITY           SKY/WX    TMP DP  RH WIND       PRES   REMARKS
GILLETTE       SUNNY     52  26  36 SE7       30.11F
SHERIDAN       CLOUDY    55  30  38 E13       30.06F
BUFFALO WY     CLOUDY    52  23  32 SE13      30.11F
CODY           CLOUDY    64  14  14 W12G17    30.09F
YELLOWSTONE LA   N/A     47  18  31 W6        30.25R
IDAHO FALLS    SUNNY     50  32  50 S6        30.20S
SALMON         CLOUDY    43  31  62 CALM      30.13S
BOISE          MOSUNNY   59  32  36 SE14      30.12F
SPOKANE        PTSUNNY   47  40  76 S8        29.97F
$$

REGIONAL REPORTS...ALBERTA

CITY           SKY/WX    TMP DP  RH WIND       PRES   REMARKS
EDMONTON       SUNNY     39  25  56 W6        29.77S
CALGARY        PTSUNNY   39  19  45 S6        29.80F
LETHBRIDGE     PTSUNNY   46  16  29 S7        29.88S
MEDICINE HAT   PTSUNNY   43  25  49 S5        29.90F
$$

REGIONAL REPORTS...SASKATCHEWAN

CITY           SKY/WX    TMP DP  RH WIND       PRES   REMARKS
SWIFT CURRENT  SUNNY     43  19  39 W20G26    29.87R
REGINA         MOSUNNY   46  19  34 W35G46    29.77R
SASKATOON      SUNNY     45  19  36 W35G44    29.69R
$$




USA.gov is the U.S. government's official web portal to all federal, state and local government web resources and services.